Weather History for Ypsilanti, MI

Change the Weather History Date:

Monday, July 1, 2013

  Actual Average Record
Temperature  
Mean Temperature 67 °F -  
Max Temperature 70 °F 81 °F 98 °F (2002)
Min Temperature 64 °F 59 °F 48 °F (2001)
Cooling Degree Days 2    
Growing Degree Days 17 (Base 50)    
Moisture  
Dew Point 54 °F    
Average Humidity 67    
Maximum Humidity 78    
Minimum Humidity 48    
Precipitation  
Precipitation 0.39 in - - ()
Sea Level Pressure  
Sea Level Pressure 30.00 in    
Wind  
Wind Speed 9 mph (NNE)    
Max Wind Speed 14 mph    
Max Gust Speed -    
Visibility 10 miles    
Events Rain    
Averages and records for this station are not official NWS values.
T = Trace of Precipitation, MM = Missing Value Source: NWS Daily Summary

Daily Weather History Graph

Daily Weather History Graph

Search for Another Location

Airport:

Trip Planner

Search our weather history database for the weather conditions in past years. The results will help you decide how hot, cold, wet, or windy it might be!

Date:

Astronomy

Jul. 01, 2013 Rise Set
Actual Time 6:01 AM EDT 9:14 PM EDT
Civil Twilight 5:27 AM EDT 9:48 PM EDT
Nautical Twilight 4:42 AM EDT 10:32 PM EDT
Astronomical Twilight 3:49 AM EDT 11:26 PM EDT
Moon 1:35 AM EDT (7/1) 3:24 PM EDT (7/1)
Length of Visible Light 16h 21m
Length of Day
15h 12m
Waning Crescent, 35% of the Moon is Illuminated
Jul 1
Waning Crescent
Jul 8
New
Jul 15
First Quarter
Jul 22
Full
Jul 29
Last Quarter

Hourly Weather History & Observations

Time (EDT) Temp. Dew Point Humidity Pressure Visibility Wind Dir Wind Speed Gust Speed Precip Events Conditions
12:53 AM 66.0 °F 46.0 °F 48% 29.94 in 10.0 mi NNE 10.4 mph - N/A   Partly Cloudy
1:53 AM 64.0 °F 46.9 °F 54% 29.94 in 10.0 mi NNE 6.9 mph - N/A   Scattered Clouds
2:53 AM 64.0 °F 48.9 °F 58% 29.93 in 10.0 mi NNE 6.9 mph - N/A   Clear
3:53 AM 64.0 °F 50.0 °F 60% 29.93 in 10.0 mi NNE 9.2 mph - N/A   Partly Cloudy
4:53 AM 64.0 °F 51.1 °F 63% 29.94 in 10.0 mi NNE 9.2 mph - N/A   Clear
5:53 AM 64.0 °F 52.0 °F 65% 29.95 in 10.0 mi NNE 11.5 mph - N/A   Clear
6:53 AM 64.9 °F 51.1 °F 61% 29.95 in 10.0 mi NNE 10.4 mph - N/A   Clear
7:53 AM 66.0 °F 51.1 °F 59% 29.96 in 10.0 mi NNE 10.4 mph - N/A   Mostly Cloudy
8:53 AM 66.9 °F 51.1 °F 57% 29.97 in 10.0 mi North 8.1 mph - N/A   Scattered Clouds
9:53 AM 69.1 °F 52.0 °F 54% 29.98 in 10.0 mi NNE 11.5 mph - N/A   Mostly Cloudy
10:53 AM 70.0 °F 54.0 °F 57% 29.98 in 10.0 mi NE 11.5 mph - N/A   Scattered Clouds
11:53 AM 70.0 °F 55.9 °F 61% 29.99 in 10.0 mi North 6.9 mph - 0.00 in Rain Light Rain
12:53 PM 68.0 °F 59.0 °F 73% 30.01 in 10.0 mi NNE 8.1 mph - 0.01 in Rain Light Rain
1:53 PM 66.9 °F 59.0 °F 76% 30.03 in 10.0 mi NNE 9.2 mph - 0.06 in Rain Light Rain
2:53 PM 66.0 °F 57.9 °F 75% 30.04 in 10.0 mi NNE 5.8 mph - 0.03 in Rain Rain
3:53 PM 66.0 °F 57.9 °F 75% 30.04 in 10.0 mi NNE 5.8 mph - 0.04 in Rain Light Rain
4:53 PM 66.0 °F 57.9 °F 75% 30.02 in 10.0 mi NNE 9.2 mph - 0.04 in Rain Light Rain
5:53 PM 64.9 °F 57.9 °F 78% 30.03 in 10.0 mi NNE 9.2 mph - 0.05 in Rain Light Rain
6:53 PM 66.0 °F 57.9 °F 75% 30.03 in 10.0 mi NE 8.1 mph - 0.03 in Rain Light Rain
7:53 PM 66.0 °F 59.0 °F 78% 30.05 in 10.0 mi ENE 10.4 mph - 0.02 in Rain Light Rain
8:53 PM 64.0 °F 57.0 °F 78% 30.05 in 10.0 mi NE 12.7 mph - 0.02 in Rain Light Rain
9:53 PM 64.0 °F 57.0 °F 78% 30.04 in 10.0 mi North 13.8 mph - 0.09 in Rain Light Rain
10:53 PM 64.0 °F 57.0 °F 78% 30.04 in 10.0 mi NNE 12.7 mph - 0.00 in   Overcast
11:53 PM 64.0 °F 55.9 °F 75% 30.04 in 10.0 mi NNE 10.4 mph - N/A   Overcast